Terug naar catalogus

COSMOS 1357

ActiefMilitairLEO
NORAD 13160·PAYLOAD·🇷🇺 Russia

Gelanceerd May 6, 1982 vanaf Plesetsk Cosmodrome

Loading…

Volgende Passages (komende 24 uur)

TLE

VersSource: Space-Track

Epoch: Sep 14, 2026, 21:48 UTC

1 13160U 82040A   26257.90840365 -.00000005  00000-0  68973-4 0  9995
2 13160  74.0123 309.1900 0050140 351.8389 194.8536 12.56068076 33990

Volg COSMOS 1357 in realtime met AllMySat

Download on the App Store